Flag for Canada Weather past 2 weeks in Gatineau, Quebec, Canada

Now
66 °F

Overcast.


Feels Like: 66 °F
Forecast: N/A
Wind: 7 mph from Southeast

Location: Ottawa Int'L. Ont.

Current Time: Jun 3, 2015 at 7:49:44 PM

Latest Report: Jun 3, 2015 at 7:00 PM


Visibility: 15 mi

Pressure: 30.18 "Hg

Humidity: 52%

Dew point: 48 °F

Location of GatineauLocation

Historic Weather in Gatineau — Graph

°F

Gatineau temperature yesterday

Maximum temperature yesterday: 61 °F (at 5:00 PM)
Minimum temperature yesterday: 46 °F (at 5:00 AM)
Average temperature yesterday: 52 °F

Past Weeks' High & Low Weather Summary

 TemperatureHumidityPressure
High84 °F (May 26, 4:00 PM)100% (May 25, 2:00 PM)30.37 "Hg (May 25, 2:00 PM)
Low28 °F (May 23, 5:00 AM)23% (May 24, 4:00 PM)29.74 "Hg (May 19, 6:00 PM)
Average59 °F66%30.07 "Hg
* Reported May 19 6:00 PM — Jun 3 6:00 PM, Gatineau, Weather by CustomWeather, © 2015

Note: Actual official high and low records may vary slightly from our data, if they occured in-between our weather recording intervals... More about our weather records

Advertising

Gatineau weather history for previous 24 hours

 ConditionsComfort  
Time TempWeatherWind HumidityBarometerVisibility
6:00 PM
Wed, Jun 3
68 °FBroken clouds.5 mph49%30.19 "Hg15 mi
5:00 PM70 °FBroken clouds.5 mph50%30.20 "Hg15 mi
4:00 PM70 °FPartly sunny.6 mph50%30.21 "Hg15 mi
3:00 PM68 °FScattered clouds.5 mph53%30.23 "Hg15 mi
2:00 PM66 °FScattered clouds.9 mph52%30.24 "Hg15 mi
1:00 PM64 °FScattered clouds.9 mph56%30.26 "Hg15 mi
12:00 PM63 °FPassing clouds.8 mph59%30.27 "Hg15 mi
11:00 AM61 °FPassing clouds.8 mph63%30.27 "Hg15 mi
10:00 AM57 °FPassing clouds.9 mph67%30.29 "Hg15 mi
9:00 AM54 °FPassing clouds.9 mph77%30.30 "Hg15 mi
8:00 AM50 °FPassing clouds.7 mph88%30.29 "Hg15 mi
7:00 AM46 °FPassing clouds.6 mph93%30.28 "Hg15 mi
6:00 AM43 °FPassing clouds.7 mph100%30.27 "Hg15 mi
5:00 AM43 °FFog.6 mph93%30.27 "Hg15 mi
4:00 AM43 °FPassing clouds.6 mph100%30.25 "Hg15 mi
3:00 AM43 °FFog.No wind93%30.26 "Hg15 mi
2:00 AM45 °FClear.2 mph93%30.26 "Hg15 mi
1:00 AM45 °FClear.6 mph93%30.25 "Hg15 mi
12:00 AM45 °FClear.5 mph93%30.24 "Hg15 mi
11:00 PM
Tue, Jun 2
48 °FClear.5 mph87%30.24 "Hg15 mi
10:00 PM48 °FPassing clouds.6 mph82%30.24 "Hg15 mi
9:00 PM54 °FPassing clouds.3 mph77%30.22 "Hg15 mi
8:00 PM55 °FPassing clouds.6 mph72%30.21 "Hg15 mi
7:00 PM57 °FPassing clouds.9 mph72%30.20 "Hg15 mi
Weather by CustomWeather, © 2015

See weather overviewHow to use our weather pages